Regional Weather Roundup
Issued by NWS

Home | Current Version | Previous Version | Graphics & Text | Print | Product List | Glossary On
Versions: 1 2 3 4 5 6 7 8 9 10 11 12 13 14 15 16 17 18 19 20 21 22 23 24 25 26 27 28 29 30 31 32 33 34 35 36 37 38 39 40 41 42 43 44 45 46 47 48 49 50
000
ASUS43 KLSX 222159
RWRMO

WEATHER SUMMARY FOR MISSOURI
NATIONAL WEATHER SERVICE SPRINGFIELD MO
500 PM CDT WED OCT 22 2014

NOTE: "FAIR" INDICATES FEW OR NO CLOUDS BELOW 12,000 FEET WITH NO
       SIGNIFICANT WEATHER AND/OR OBSTRUCTIONS TO VISIBILITY.
       CURRENT SKY AND/OR WEATHER CONDITIONS ARE NOT AVAILABLE FOR
       CHILLICOTHE AND FARMINGTON.

MOZ001>031-035>038-043-044-053-054-222300-
...NORTHERN AND WESTERN MISSOURI...

CITY           SKY/WX    TMP DP  RH WIND       PRES   REMARKS
KANSAS CTY INT MOSUNNY   71  57  61 SE14      30.09S
KANSAS C DTWN  SUNNY     73  56  54 SE13      30.09S
LEE`S SUMMIT   PTSUNNY   70  53  54 SE10      30.12R
ST JOSEPH      SUNNY     73  55  53 SE13      30.08S
CHILLICOTHE      N/A     68  48  48 SE9       30.15R
KIRKSVILLE     SUNNY     63  45  51 SE10      30.17F

$$
MOZ066>068-077>081-088>096-101>105-222300-
...SOUTHWEST MISSOURI...

CITY           SKY/WX    TMP DP  RH WIND       PRES   REMARKS
SPRINGFIELD    SUNNY     69  47  45 S8        30.14F
JOPLIN         SUNNY     71  57  61 SE5       30.12S

$$
MOZ032>034-039>042-045>050-055>058-069>072-222300-
...CENTRAL MISSOURI...

CITY           SKY/WX    TMP DP  RH WIND       PRES   REMARKS
COLUMBIA       SUNNY     65  43  44 SE12      30.16F
JEFFERSON CITY SUNNY     68  40  35 E7        30.16F
ROLLA          SUNNY     64  40  41 E8        30.17F
SEDALIA        SUNNY     69  48  47 SE9       30.15F
WHITEMAN AFB   SUNNY     70  47  44 SE8       30.12F
OSAGE BEACH    SUNNY     70  45  40 SE6       30.15F

$$
MOZ051-052-059>065-222300-
...EAST CENTRAL MISSOURI...

CITY           SKY/WX    TMP DP  RH WIND       PRES   REMARKS
ST LOUIS INTL  SUNNY     63  41  44 E6        30.23F
SPIRIT OF STL  SUNNY     62  42  47 E8        30.21F
ST CHARLES     SUNNY     62  42  47 SE5       30.21F

$$
MOZ072>076-082>087-097>100-106>115-222300-
...SOUTH CENTRAL AND SOUTHEAST MISSOURI...

CITY           SKY/WX    TMP DP  RH WIND       PRES   REMARKS
CAPE GIRARDEAU SUNNY     64  40  41 NE7       30.21F
FARMINGTON     SUNNY     63  43  48 E6        30.23F
POPLAR BLUFF   SUNNY     65  40  39 NE9       30.20S
WEST PLAINS    SUNNY     65  44  46 E8        30.19F

$$



USA.gov is the U.S. government's official web portal to all federal, state and local government web resources and services.